Location: New Canada
(47.1017°N, 68.5042°W)
Time: 22:06:46
(UTC+00:00)

RS-44 - Pass Details

Date: 06 April 2023
Orbit: 1175 x 1510 km, 82.5° (Epoch: 02 June)

Event Time Altitude Azimuth Distance (km) Brightness Sun altitude
Rises 03:49:09 0° 354° (N) 4,421 ? -35.5°
Reaches altitude 10° 03:52:21 10° 4° (N) 3,492 ? -35.7°
Maximum altitude 03:59:44 33° 66° (ENE) 2,279 ? -35.9°
Enters shadow 04:01:04 31° 82° (E) 2,342 ? -36.0°
